Time[GMT],salinity[psu](1m),sigma_t[kg/m^3](1m),conductivity[msiemens/cm](1m),temperature[C](1m)
2014-09-20 00:00,32.277,24.259,38.210,13.13
2014-09-20 01:00,32.307,24.268,38.305,13.20
2014-09-20 02:00,32.318,24.283,38.290,13.17
2014-09-20 03:00,32.313,24.299,38.194,13.07
2014-09-20 04:00,32.306,24.298,38.169,13.05
2014-09-20 05:00,32.306,24.306,38.133,13.01
2014-09-20 06:00,32.313,24.309,38.149,13.02
2014-09-20 07:00,32.323,24.323,38.133,12.99
2014-09-20 08:00,32.329,24.348,38.039,12.88
2014-09-20 09:00,32.340,24.367,38.006,12.83
2014-09-20 10:00,32.335,24.365,37.992,12.82
2014-09-20 11:00,32.341,24.375,37.971,12.79
2014-09-20 12:00,32.339,24.372,37.978,12.80
2014-09-20 13:00,32.342,24.372,37.990,12.81
2014-09-20 14:00,32.338,24.357,38.040,12.87
2014-09-20 15:00,32.335,24.341,38.100,12.94
2014-09-20 16:00,32.325,24.324,38.135,12.99
2014-09-20 17:00,32.314,24.311,38.141,13.01
2014-09-20 18:00,32.323,24.309,38.196,13.06
2014-09-20 19:00,32.326,24.311,38.199,13.06
2014-09-20 20:00,32.326,24.309,38.208,13.07
2014-09-20 21:00,32.330,24.312,38.212,13.07
2014-09-20 22:00,32.328,24.310,38.210,13.07
2014-09-20 23:00,32.320,24.309,38.184,13.05
2014-09-21 00:00,32.321,24.311,38.176,13.04
2014-09-21 01:00,32.322,24.314,38.168,13.03
2014-09-21 02:00,32.324,24.319,38.152,13.01
2014-09-21 03:00,32.319,24.315,38.146,13.01
2014-09-21 04:00,32.325,24.316,38.171,13.03
2014-09-21 05:00,32.336,24.319,38.210,13.06
2014-09-21 06:00,32.240,24.195,38.334,13.31
2014-09-21 07:00,32.150,24.108,38.319,13.40
2014-09-21 09:00,32.100,24.059,38.310,13.45
2014-09-21 10:00,32.100,24.059,38.310,13.45
2014-09-21 11:00,32.091,24.050,38.310,13.46
2014-09-21 12:00,32.090,24.047,38.317,13.47
2014-09-21 13:00,32.075,24.029,38.328,13.50
2014-09-21 14:00,32.064,24.009,38.371,13.56
2014-09-21 15:00,32.047,23.994,38.362,13.57
2014-09-21 16:00,32.023,23.962,38.399,13.64
2014-09-21 17:00,32.001,23.932,38.429,13.70
2014-09-21 18:00,32.061,23.956,38.593,13.81
2014-09-21 19:00,32.076,23.961,38.636,13.84
2014-09-21 20:00,32.133,24.012,38.671,13.81
2014-09-21 21:00,32.202,24.075,38.700,13.76
2014-09-21 22:00,32.203,24.141,38.412,13.44
2014-09-21 23:00,32.187,24.134,38.367,13.41
2014-09-22 00:00,32.195,24.151,38.331,13.36
2014-09-22 01:00,32.193,24.149,38.329,13.36
2014-09-22 02:00,32.182,24.136,38.335,13.38
2014-09-22 03:00,32.171,24.122,38.350,13.41
2014-09-22 04:00,32.166,24.114,38.363,13.43
2014-09-22 05:00,32.160,24.104,38.384,13.46
2014-09-22 06:00,,,,
2014-09-22 07:00,32.178,24.052,38.692,13.78
2014-09-22 08:00,32.181,24.079,38.587,13.66
2014-09-22 09:00,32.183,24.105,38.480,13.54
2014-09-22 10:00,32.169,24.108,38.402,13.47
2014-09-22 11:00,32.163,24.106,38.387,13.46
2014-09-22 12:00,32.178,24.121,38.385,13.44
2014-09-22 13:00,32.159,24.102,38.382,13.46
2014-09-22 14:00,32.160,24.098,38.411,13.49
2014-09-22 15:00,,,,
2014-09-22 16:00,32.155,24.082,38.460,13.55
2014-09-22 17:00,32.171,24.092,38.486,13.56
2014-09-22 18:00,32.190,24.100,38.533,13.59
2014-09-22 19:00,32.199,24.095,38.597,13.65
2014-09-22 20:00,32.185,24.060,38.691,13.77
2014-09-22 21:00,32.088,23.932,38.821,14.03
2014-09-22 22:00,32.102,23.945,38.827,14.02
2014-09-22 23:00,32.060,23.921,38.746,13.98
2014-09-23 00:00,32.083,23.973,38.617,13.81
2014-09-23 01:00,32.098,24.024,38.462,13.62
2014-09-23 02:00,32.124,24.082,38.318,13.43
2014-09-23 03:00,32.173,24.167,38.154,13.19
2014-09-23 04:00,32.204,24.207,38.115,13.11
2014-09-23 05:00,32.163,24.137,38.242,13.30
2014-09-23 06:00,32.106,24.066,38.308,13.44
2014-09-23 07:00,32.039,24.002,38.290,13.50
2014-09-23 08:00,32.055,24.022,38.271,13.46
2014-09-23 09:00,32.057,24.026,38.264,13.45
2014-09-23 10:00,32.076,24.044,38.266,13.43
2014-09-23 11:00,32.086,24.056,38.259,13.41
2014-09-23 12:00,32.091,24.062,38.256,13.40
2014-09-23 13:00,32.089,24.058,38.262,13.41
2014-09-23 14:00,32.076,24.042,38.275,13.44
2014-09-23 15:00,32.068,24.024,38.321,13.50
2014-09-23 16:00,32.072,24.015,38.379,13.56
2014-09-23 17:00,32.044,23.991,38.358,13.57
2014-09-23 18:00,32.036,23.982,38.368,13.59
2014-09-23 19:00,32.028,23.967,38.395,13.63
2014-09-23 20:00,32.040,23.978,38.399,13.62
2014-09-23 21:00,32.054,23.995,38.387,13.59
2014-09-23 22:00,32.075,24.016,38.392,13.57
2014-09-23 23:00,32.084,24.020,38.410,13.58
2014-09-24 00:00,32.091,24.032,38.391,13.55
2014-09-24 01:00,32.099,24.042,38.381,13.53
2014-09-24 03:00,32.077,24.025,38.358,13.53
2014-09-24 04:00,32.076,24.033,38.321,13.49
2014-09-24 05:00,32.045,24.010,38.278,13.48
2014-09-24 06:00,32.037,24.018,38.207,13.41
2014-09-24 07:00,32.014,24.000,38.182,13.41
2014-09-24 08:00,32.042,24.020,38.221,13.42
2014-09-24 09:00,32.058,24.024,38.274,13.46
2014-09-24 10:00,32.056,24.025,38.263,13.45
2014-09-24 11:00,32.062,24.033,38.251,13.43
2014-09-24 12:00,32.080,24.052,38.253,13.41
2014-09-24 13:00,32.090,24.059,38.263,13.41
2014-09-24 14:00,32.113,24.077,38.288,13.41
2014-09-24 15:00,32.079,24.045,38.279,13.44
2014-09-24 16:00,32.108,24.067,38.310,13.44
2014-09-24 17:00,32.149,24.097,38.363,13.45
2014-09-24 18:00,32.140,24.062,38.480,13.59
2014-09-24 19:00,32.145,24.047,38.566,13.68
2014-09-24 20:00,32.176,24.043,38.726,13.82
2014-09-24 21:00,32.185,24.086,38.573,13.64
2014-09-24 22:00,,,,
2014-09-24 23:00,32.178,24.095,38.502,13.57
2014-09-25 00:00,32.154,24.080,38.458,13.55
2014-09-25 01:00,32.135,24.084,38.357,13.46
2014-09-25 02:00,32.122,24.076,38.334,13.45
2014-09-25 03:00,32.119,24.080,38.304,13.42
2014-09-25 04:00,32.117,24.074,38.319,13.44
2014-09-25 05:00,32.110,24.071,38.303,13.43
2014-09-25 06:00,32.115,24.072,38.317,13.44
2014-09-25 07:00,32.126,24.077,38.347,13.46
2014-09-25 08:00,32.118,24.075,38.320,13.44
2014-09-25 09:00,32.137,24.108,38.260,13.35
2014-09-25 10:00,32.190,24.142,38.343,13.38
2014-09-25 11:00,32.198,24.149,38.352,13.38
2014-09-25 12:00,32.218,24.158,38.400,13.41
2014-09-25 13:00,32.221,24.155,38.431,13.44
2014-09-25 14:00,32.233,24.113,38.670,13.69
2014-09-25 15:00,32.246,24.156,38.539,13.53
2014-09-25 16:00,32.265,24.136,38.714,13.70
2014-09-25 17:00,32.226,23.932,39.435,14.54
2014-09-25 18:00,32.206,23.926,39.377,14.50
2014-09-25 19:00,32.213,23.941,39.339,14.45
2014-09-25 20:00,32.226,23.924,39.472,14.58
2014-09-25 21:00,32.195,23.947,39.238,14.36
2014-09-25 22:00,32.206,23.986,39.113,14.21
2014-09-25 23:00,32.203,24.015,38.973,14.06
2014-09-26 00:00,32.223,24.051,38.904,13.96
2014-09-26 01:00,32.246,24.062,38.956,13.99
2014-09-26 02:00,32.243,24.073,38.899,13.93
2014-09-26 03:00,32.248,24.094,38.822,13.84
2014-09-26 04:00,32.241,24.120,38.679,13.69
2014-09-26 05:00,32.235,24.139,38.563,13.57
2014-09-26 06:00,32.211,24.175,38.294,13.30
2014-09-26 07:00,32.177,24.146,38.266,13.31
2014-09-26 08:00,32.131,24.115,38.199,13.29
2014-09-26 09:00,32.114,24.114,38.127,13.23
2014-09-26 10:00,32.153,24.126,38.250,13.32
2014-09-26 11:00,32.185,24.157,38.257,13.29
2014-09-26 12:00,32.181,24.159,38.225,13.26
2014-09-26 13:00,32.203,24.158,38.330,13.35
2014-09-26 14:00,32.240,24.158,38.506,13.50
2014-09-26 15:00,32.276,24.157,38.671,13.64
2014-09-26 16:00,32.144,23.899,39.218,14.40
2014-09-26 17:00,32.076,23.867,39.053,14.30
2014-09-26 18:00,32.071,23.847,39.120,14.38
2014-09-26 19:00,32.097,23.879,39.094,14.32
2014-09-26 21:00,31.947,23.571,39.755,15.23
2014-09-26 22:00,32.089,23.766,39.549,14.83
2014-09-26 23:00,32.111,23.815,39.437,14.68
2014-09-27 00:00,32.253,23.970,39.392,14.46
2014-09-27 01:00,32.419,24.148,39.354,14.22
2014-09-27 02:00,32.505,24.150,39.732,14.53
2014-09-27 03:00,32.489,24.190,39.485,14.28
2014-09-27 04:00,32.490,24.230,39.312,14.09
2014-09-27 05:00,32.498,24.267,39.184,13.94
2014-09-27 06:00,32.498,24.288,39.093,13.84
2014-09-27 07:00,32.498,24.288,39.093,13.84
2014-09-27 08:00,32.398,24.209,38.994,13.85
2014-09-27 09:00,32.318,24.159,38.853,13.79
2014-09-27 10:00,32.260,24.147,38.645,13.63
2014-09-27 11:00,32.245,24.145,38.583,13.58
2014-09-27 12:00,32.322,24.172,38.811,13.74
2014-09-27 13:00,32.473,24.246,39.166,13.95
2014-09-27 14:00,32.489,24.256,39.192,13.96
2014-09-27 15:00,32.464,24.208,39.293,14.10
2014-09-27 16:00,32.469,24.191,39.390,14.20
2014-09-27 17:00,32.441,24.092,39.699,14.57
2014-09-27 18:00,32.321,23.966,39.714,14.73
2014-09-27 19:00,32.471,23.886,40.709,15.63
2014-09-27 20:00,32.342,23.916,40.021,15.04
2014-09-27 21:00,32.307,23.778,40.451,15.55
2014-09-27 22:00,32.351,23.838,40.390,15.43
2014-09-27 23:00,32.452,23.957,40.327,15.24
2014-09-28 00:00,32.382,23.996,39.854,14.81
2014-09-28 01:00,32.354,23.997,39.722,14.70
2014-09-28 02:00,32.305,23.989,39.540,14.56
2014-09-28 03:00,32.280,23.989,39.431,14.47
2014-09-28 04:00,32.230,23.934,39.449,14.55
2014-09-28 05:00,32.230,23.940,39.422,14.52
2014-09-28 06:00,32.258,23.978,39.379,14.44
2014-09-28 07:00,32.257,23.992,39.314,14.37
2014-09-28 08:00,32.186,23.885,39.464,14.62
2014-09-28 09:00,32.215,23.912,39.478,14.60
2014-09-28 10:00,32.233,23.967,39.315,14.40
2014-09-28 11:00,32.233,23.967,39.315,14.40
2014-09-28 12:00,32.262,24.017,39.229,14.27
2014-09-28 13:00,32.209,23.926,39.389,14.51
2014-09-28 14:00,32.167,23.830,39.617,14.81
2014-09-28 15:00,32.176,23.794,39.809,15.01
2014-09-28 16:00,32.226,23.807,39.975,15.13
2014-09-28 17:00,32.300,23.903,39.892,14.95
2014-09-28 18:00,32.272,23.819,40.127,15.24
2014-09-28 19:00,32.285,23.816,40.197,15.30
2014-09-28 20:00,32.268,23.785,40.251,15.38
2014-09-28 21:00,32.235,23.742,40.287,15.46
2014-09-28 22:00,32.134,23.630,40.321,15.62
2014-09-28 23:00,32.158,23.714,40.073,15.32
2014-09-29 00:00,32.158,23.746,39.936,15.17
2014-09-29 01:00,32.152,23.733,39.966,15.21
2014-09-29 02:00,32.133,23.705,39.999,15.27
2014-09-29 03:00,32.106,23.717,39.832,15.12
2014-09-29 04:00,32.108,23.744,39.725,15.00
2014-09-29 05:00,32.100,23.747,39.680,14.96
2014-09-29 06:00,32.099,23.757,39.633,14.91
2014-09-29 07:00,32.100,23.768,39.588,14.86
2014-09-29 08:00,32.135,23.784,39.673,14.91
2014-09-29 09:00,32.209,23.858,39.681,14.83
2014-09-29 10:00,32.167,23.824,39.644,14.84
2014-09-29 11:00,32.135,23.801,39.600,14.83
2014-09-29 12:00,32.103,23.804,39.446,14.70
2014-09-29 13:00,32.134,23.811,39.553,14.78
2014-09-29 14:00,32.110,23.772,39.618,14.88
2014-09-29 15:00,32.100,23.742,39.698,14.98
2014-09-29 16:00,32.189,23.860,39.586,14.75
2014-09-29 17:00,32.364,24.203,38.866,13.75
2014-09-29 18:00,32.423,24.306,38.665,13.46
2014-09-29 19:00,32.394,24.268,38.707,13.54
2014-09-29 20:00,32.415,24.288,38.711,13.52
2014-09-29 21:00,32.439,24.273,38.892,13.69
2014-09-29 22:00,32.356,24.203,38.830,13.72
2014-09-29 23:00,32.324,24.172,38.823,13.75
2014-09-30 00:00,32.314,24.178,38.748,13.68
2014-09-30 01:00,32.314,24.178,38.748,13.68
2014-09-30 02:00,32.322,24.207,38.657,13.57
2014-09-30 03:00,32.317,24.201,38.661,13.58
2014-09-30 04:00,32.321,24.200,38.683,13.60
2014-09-30 05:00,32.325,24.207,38.669,13.58
2014-09-30 06:00,32.333,24.227,38.614,13.51
2014-09-30 07:00,32.379,24.277,38.600,13.44
2014-09-30 08:00,32.419,24.336,38.516,13.30
2014-09-30 09:00,32.514,24.447,38.444,13.11
2014-09-30 10:00,32.514,24.447,38.444,13.11
2014-09-30 11:00,32.505,24.408,38.580,13.27
2014-09-30 12:00,32.449,24.377,38.466,13.21
2014-09-30 13:00,32.430,24.372,38.400,13.16
2014-09-30 14:00,32.406,24.353,38.375,13.16
2014-09-30 15:00,32.399,24.344,38.385,13.18
2014-09-30 16:00,32.399,24.338,38.412,13.21
2014-09-30 17:00,32.389,24.326,38.420,13.23
2014-09-30 18:00,32.392,24.332,38.405,13.21
2014-09-30 19:00,32.391,24.336,38.386,13.19
2014-09-30 20:00,32.392,24.343,38.360,13.16
2014-09-30 21:00,32.400,24.354,38.341,13.13
2014-09-30 22:00,32.394,24.348,38.344,13.14
2014-09-30 23:00,32.391,24.351,38.313,13.11
2014-10-01 00:00,32.346,24.307,38.311,13.16
2014-10-01 01:00,32.349,24.307,38.323,13.17
2014-10-01 02:00,32.344,24.301,38.327,13.18
2014-10-01 03:00,32.346,24.305,38.320,13.17
2014-10-01 04:00,32.342,24.302,38.316,13.17
2014-10-01 05:00,32.342,24.302,38.316,13.17
2014-10-01 06:00,32.339,24.297,38.321,13.18
2014-10-01 07:00,32.344,24.301,38.327,13.18
2014-10-01 08:00,32.306,24.272,38.286,13.18
2014-10-01 09:00,32.317,24.298,38.217,13.09
2014-10-01 10:00,32.316,24.313,38.143,13.01
2014-10-01 11:00,32.349,24.334,38.196,13.03
2014-10-01 12:00,32.364,24.350,38.194,13.01
2014-10-01 13:00,32.328,24.353,38.011,12.85
2014-10-01 14:00,32.350,24.380,37.989,12.80
2014-10-01 15:00,32.365,24.396,37.987,12.78
2014-10-01 16:00,32.389,24.422,37.976,12.74
2014-10-01 17:00,32.388,24.419,37.984,12.75
2014-10-01 18:00,32.399,24.428,37.996,12.75
2014-10-01 19:00,32.409,24.433,38.015,12.76
2014-10-01 20:00,32.423,24.448,38.012,12.74
2014-10-01 21:00,32.428,24.456,37.999,12.72
2014-10-01 22:00,32.431,24.460,37.993,12.71
2014-10-01 23:00,32.438,24.468,37.992,12.70
2014-10-02 01:00,32.548,24.590,37.935,12.51
2014-10-02 02:00,32.523,24.568,37.918,12.52
2014-10-02 03:00,32.489,24.542,37.882,12.52
2014-10-02 04:00,32.470,24.527,37.862,12.52
2014-10-02 05:00,32.470,24.527,37.862,12.52
2014-10-02 06:00,32.465,24.521,37.866,12.53
2014-10-02 07:00,32.472,24.530,37.855,12.51
2014-10-02 08:00,32.459,24.517,37.860,12.53
2014-10-02 10:00,32.470,24.546,37.772,12.42
2014-10-02 11:00,32.503,24.581,37.761,12.37
2014-10-02 12:00,32.514,24.599,37.727,12.32
2014-10-02 13:00,32.525,24.604,37.757,12.34
2014-10-02 14:00,32.526,24.618,37.695,12.27
2014-10-02 15:00,32.546,24.628,37.743,12.30
2014-10-02 16:00,32.562,24.640,37.759,12.30
2014-10-02 17:00,32.559,24.619,37.847,12.40
2014-10-02 18:00,32.718,24.540,38.953,13.43
2014-10-02 19:00,32.722,24.523,39.049,13.53
2014-10-02 20:00,32.711,24.501,39.102,13.60
2014-10-02 21:00,32.696,24.481,39.122,13.64
2014-10-02 22:00,32.685,24.451,39.212,13.75
2014-10-02 23:00,32.684,24.456,39.183,13.72
2014-10-03 00:00,32.675,24.439,39.219,13.77
2014-10-03 01:00,32.672,24.434,39.225,13.78
2014-10-03 02:00,32.670,24.427,39.251,13.81
2014-10-03 03:00,32.673,24.444,39.190,13.74
2014-10-03 04:00,32.676,24.456,39.147,13.69
2014-10-03 05:00,32.673,24.466,39.089,13.63
2014-10-03 06:00,32.676,24.490,38.991,13.52
2014-10-03 07:00,32.662,24.499,38.884,13.42
2014-10-03 08:00,32.683,24.472,39.109,13.64
2014-10-03 09:00,32.667,24.424,39.247,13.81
2014-10-03 10:00,32.681,24.439,39.244,13.79
2014-10-03 11:00,32.689,24.447,39.243,13.78
2014-10-03 12:00,32.711,24.489,39.157,13.66
2014-10-03 13:00,32.758,24.549,39.097,13.54
2014-10-03 14:00,32.813,24.629,38.991,13.36
2014-10-03 15:00,32.831,24.662,38.918,13.26
2014-10-03 16:00,32.841,24.676,38.901,13.23
2014-10-03 17:00,32.848,24.685,38.890,13.21
2014-10-03 18:00,32.854,24.692,38.887,13.20
2014-10-03 19:00,32.861,24.698,38.895,13.20
2014-10-03 20:00,32.829,24.629,39.063,13.42
2014-10-03 21:00,32.830,24.635,39.036,13.39
2014-10-03 22:00,32.829,24.649,38.971,13.32
2014-10-03 23:00,32.831,24.658,38.936,13.28
2014-10-04 00:00,32.840,24.677,38.891,13.22
2014-10-04 01:00,32.839,24.674,38.899,13.23
2014-10-04 02:00,32.846,24.694,38.842,13.16
2014-10-04 03:00,32.848,24.745,38.615,12.91
2014-10-04 04:00,32.875,24.810,38.432,12.68
2014-10-04 05:00,32.788,24.625,38.890,13.28
2014-10-04 06:00,32.715,24.506,39.097,13.59
2014-10-04 07:00,32.692,24.466,39.173,13.70
2014-10-04 08:00,32.664,24.430,39.207,13.77
2014-10-04 09:00,,,,
2014-10-04 10:00,32.657,24.439,39.136,13.70
2014-10-04 11:00,32.678,24.571,38.627,13.12
2014-10-04 12:00,32.633,24.653,38.033,12.52
2014-10-04 13:00,32.565,24.607,37.935,12.49
2014-10-04 14:00,32.546,24.588,37.933,12.51
2014-10-04 15:00,32.521,24.563,37.934,12.54
2014-10-04 16:00,32.564,24.602,37.952,12.51
2014-10-04 17:00,32.593,24.620,38.000,12.53
2014-10-04 18:00,32.605,24.620,38.058,12.58
2014-10-04 19:00,32.597,24.606,38.086,12.62
2014-10-04 20:00,32.603,24.613,38.083,12.61
2014-10-04 21:00,32.586,24.596,38.084,12.63
2014-10-04 22:00,32.567,24.585,38.045,12.61
2014-10-04 23:00,32.539,24.567,37.998,12.59
2014-10-05 00:00,32.545,24.576,37.986,12.57
2014-10-05 01:00,32.566,24.592,38.008,12.57
2014-10-05 03:00,32.530,24.562,37.980,12.58
2014-10-05 04:00,32.531,24.561,37.990,12.59
2014-10-05 05:00,32.525,24.556,37.983,12.59
2014-10-05 06:00,32.527,24.556,37.994,12.60
2014-10-05 07:00,32.287,24.365,37.770,12.63
2014-10-05 08:00,32.503,24.539,37.960,12.59
2014-10-05 09:00,32.521,24.557,37.961,12.57
2014-10-05 10:00,32.523,24.545,38.027,12.64
2014-10-05 11:00,32.535,24.556,38.030,12.63
2014-10-05 12:00,32.525,24.550,38.010,12.62
2014-10-05 13:00,,,,
2014-10-05 14:00,32.515,24.539,38.018,12.64
2014-10-05 15:00,32.527,24.552,38.013,12.62
2014-10-05 16:00,32.495,24.508,38.070,12.72
2014-10-05 17:00,32.448,24.464,38.056,12.76
2014-10-05 18:00,32.416,24.404,38.186,12.94
2014-10-05 19:00,32.405,24.374,38.274,13.05
2014-10-05 20:00,32.287,24.230,38.393,13.32
2014-10-05 21:00,32.196,24.153,38.323,13.35
2014-10-05 22:00,32.185,24.147,38.302,13.34
2014-10-05 23:00,32.235,24.211,38.238,13.21
2014-10-06 00:00,32.384,24.363,38.224,13.02
2014-10-06 01:00,32.326,24.291,38.289,13.16
2014-10-06 02:00,32.263,24.241,38.232,13.17
2014-10-06 03:00,32.235,24.234,38.129,13.09
2014-10-06 04:00,32.182,24.188,38.100,13.12
2014-10-06 05:00,32.225,24.247,38.029,12.99
2014-10-06 06:00,32.237,24.259,38.023,12.97
2014-10-06 07:00,32.137,24.184,37.908,12.96
2014-10-06 08:00,32.278,24.264,38.193,13.11
2014-10-06 09:00,32.247,24.264,38.052,12.99
2014-10-06 10:00,32.418,24.449,37.989,12.72
2014-10-06 11:00,32.599,24.627,37.997,12.52
2014-10-06 12:00,32.774,24.778,38.108,12.44
2014-10-06 13:00,32.826,24.807,38.217,12.50
2014-10-06 14:00,32.784,24.757,38.255,12.59
2014-10-06 15:00,32.769,24.736,38.285,12.64
2014-10-06 16:00,32.769,24.734,38.294,12.65
2014-10-06 17:00,32.346,24.283,38.419,13.28
2014-10-06 18:00,32.467,24.397,38.458,13.18
2014-10-06 19:00,32.453,24.366,38.534,13.28
2014-10-06 20:00,32.475,24.389,38.530,13.25
2014-10-06 21:00,32.494,24.412,38.514,13.21
2014-10-06 22:00,32.492,24.409,38.511,13.21
2014-10-06 23:00,32.572,24.499,38.469,13.07
2014-10-07 00:00,32.646,24.592,38.383,12.89
2014-10-07 01:00,32.731,24.689,38.327,12.73
2014-10-07 02:00,32.743,24.686,38.394,12.79
2014-10-07 03:00,32.748,24.692,38.390,12.78
2014-10-07 04:00,32.747,24.695,38.371,12.76
2014-10-07 05:00,32.701,24.667,38.286,12.72
2014-10-07 06:00,32.691,24.656,38.294,12.74
2014-10-07 07:00,32.679,24.645,38.291,12.75
2014-10-07 08:00,32.695,24.661,38.289,12.73
2014-10-07 09:00,32.700,24.669,38.276,12.71
2014-10-07 10:00,32.660,24.624,38.298,12.78
2014-10-07 11:00,32.663,24.627,38.301,12.78
2014-10-07 12:00,32.682,24.643,38.312,12.77
2014-10-07 13:00,32.668,24.627,38.325,12.80
2014-10-07 14:00,32.666,24.625,38.322,12.80
2014-10-07 15:00,32.698,24.654,38.338,12.78
2014-10-07 16:00,32.718,24.671,38.350,12.77
2014-10-07 17:00,32.736,24.683,38.378,12.78
2014-10-07 18:00,32.749,24.697,38.373,12.76
2014-10-07 19:00,32.748,24.691,38.400,12.79
2014-10-07 20:00,32.751,24.695,38.394,12.78
2014-10-07 21:00,32.786,24.730,38.394,12.74
2014-10-07 22:00,32.786,24.730,38.394,12.74
2014-10-07 23:00,32.813,24.758,38.386,12.70
2014-10-08 00:00,32.840,24.775,38.432,12.72
2014-10-08 01:00,32.831,24.772,38.405,12.70
2014-10-08 02:00,32.839,24.780,38.404,12.69
2014-10-08 03:00,32.822,24.767,38.386,12.69
2014-10-08 04:00,32.797,24.742,38.387,12.72
2014-10-08 05:00,32.797,24.742,38.387,12.72
2014-10-08 06:00,32.800,24.746,38.381,12.71
2014-10-08 07:00,32.640,24.587,38.377,12.89
2014-10-08 08:00,32.667,24.616,38.369,12.85
2014-10-08 09:00,32.719,24.670,38.360,12.78
2014-10-08 10:00,32.738,24.689,38.362,12.76
2014-10-08 11:00,32.766,24.716,38.364,12.73
2014-10-08 12:00,32.770,24.717,38.377,12.74
2014-10-08 13:00,32.767,24.709,38.401,12.77
2014-10-08 14:00,32.789,24.714,38.479,12.83
2014-10-08 15:00,32.805,24.719,38.533,12.87
2014-10-08 17:00,32.842,24.728,38.663,12.97
2014-10-08 18:00,32.829,24.718,38.650,12.97
2014-10-08 19:00,32.817,24.701,38.674,13.01
2014-10-08 20:00,32.527,24.421,38.622,13.29
2014-10-08 21:00,32.294,24.205,38.536,13.47
2014-10-08 22:00,32.233,24.160,38.462,13.46
2014-10-08 23:00,32.217,24.155,38.408,13.42
2014-10-09 00:00,32.195,24.140,38.376,13.41
2014-10-09 01:00,32.172,24.120,38.360,13.42
2014-10-09 02:00,32.165,24.121,38.326,13.39
2014-10-09 03:00,32.169,24.132,38.294,13.35
2014-10-09 04:00,32.177,24.146,38.266,13.31
2014-10-09 05:00,32.206,24.181,38.243,13.25
2014-10-09 06:00,32.219,24.189,38.266,13.26
2014-10-09 07:00,32.335,24.308,38.254,13.11
2014-10-09 08:00,32.332,24.315,38.205,13.06
2014-10-09 09:00,32.406,24.386,38.220,12.99
2014-10-09 10:00,32.429,24.411,38.218,12.96
2014-10-09 11:00,32.357,24.349,38.169,12.99
2014-10-09 12:00,32.355,24.347,38.166,12.99
2014-10-09 14:00,32.320,24.311,38.175,13.04
2014-10-09 15:00,32.300,24.289,38.180,13.07
2014-10-09 16:00,32.299,24.277,38.234,13.13
2014-10-09 17:00,32.274,24.249,38.243,13.17
2014-10-09 18:00,32.265,24.236,38.261,13.20
2014-10-09 19:00,32.276,24.248,38.254,13.18
2014-10-09 20:00,32.287,24.255,38.275,13.19
2014-10-09 21:00,32.289,24.259,38.268,13.18
2014-10-09 22:00,32.299,24.275,38.243,13.14
2014-10-09 23:00,32.303,24.287,38.202,13.09
2014-10-10 00:00,32.302,24.292,38.173,13.06
2014-10-10 01:00,32.312,24.306,38.157,13.03
2014-10-10 02:00,,,,
2014-10-10 03:00,32.360,24.349,38.181,13.00
2014-10-10 04:00,32.371,24.361,38.174,12.98
2014-10-10 05:00,32.395,24.388,38.163,12.94
2014-10-10 06:00,32.349,24.362,38.070,12.89
2014-10-10 07:00,32.342,24.364,38.026,12.85
2014-10-10 08:00,32.347,24.362,38.058,12.88
2014-10-10 09:00,32.359,24.370,38.080,12.89
2014-10-10 10:00,32.348,24.367,38.041,12.86
2014-10-10 11:00,32.348,24.362,38.069,12.89
2014-10-10 12:00,32.358,24.381,38.025,12.83
2014-10-10 13:00,32.360,24.374,38.063,12.87
2014-10-10 14:00,32.368,24.381,38.072,12.87
2014-10-10 15:00,32.411,24.406,38.153,12.91
2014-10-10 16:00,32.380,24.365,38.202,13.00
2014-10-10 17:00,32.370,24.349,38.228,13.04
2014-10-10 18:00,32.372,24.343,38.266,13.08
2014-10-10 19:00,32.369,24.343,38.254,13.07
2014-10-10 20:00,32.370,24.341,38.264,13.08
2014-10-10 21:00,32.383,24.355,38.259,13.06
2014-10-10 22:00,32.376,24.352,38.243,13.05
2014-10-10 23:00,32.383,24.363,38.223,13.02
2014-10-11 00:00,32.377,24.356,38.226,13.03
2014-10-11 01:00,32.386,24.365,38.226,13.02
2014-10-11 02:00,32.394,24.372,38.235,13.02
2014-10-11 03:00,32.395,24.378,38.209,12.99
2014-10-11 04:00,32.374,24.367,38.159,12.96
2014-10-11 05:00,32.379,24.377,38.137,12.93
2014-10-11 06:00,32.383,24.385,38.124,12.91
2014-10-11 07:00,32.385,24.388,38.117,12.90
2014-10-11 08:00,32.355,24.375,38.040,12.85
2014-10-11 09:00,32.364,24.383,38.040,12.84
2014-10-11 11:00,32.362,24.388,38.011,12.81
2014-10-11 12:00,32.372,24.399,38.003,12.79
2014-10-11 13:00,32.369,24.408,37.946,12.73
2014-10-11 14:00,32.368,24.408,37.945,12.73
2014-10-11 15:00,32.385,24.419,37.972,12.74
2014-10-11 16:00,32.373,24.413,37.941,12.72
2014-10-11 17:00,32.387,24.422,37.965,12.73
2014-10-11 18:00,32.407,24.434,38.004,12.75
2014-10-11 19:00,32.419,24.442,38.026,12.76
2014-10-11 20:00,32.428,24.443,38.063,12.79
2014-10-11 21:00,32.394,24.413,38.045,12.81
2014-10-11 22:00,32.386,24.416,37.991,12.76
2014-10-11 23:00,32.380,24.413,37.976,12.75
2014-10-12 00:00,32.380,24.417,37.958,12.73
2014-10-12 01:00,32.379,24.420,37.939,12.71
2014-10-12 02:00,32.370,24.411,37.938,12.72
2014-10-12 03:00,32.377,24.418,37.936,12.71
2014-10-12 04:00,32.385,24.431,37.918,12.68
2014-10-12 05:00,32.397,24.443,37.912,12.66
2014-10-12 06:00,32.405,24.456,37.894,12.63
2014-10-12 07:00,32.412,24.459,37.910,12.64
2014-10-12 08:00,32.410,24.466,37.872,12.60
2014-10-12 09:00,32.426,24.485,37.852,12.56
2014-10-12 10:00,32.431,24.491,37.849,12.55
2014-10-12 11:00,32.448,24.527,37.758,12.43
2014-10-12 12:00,32.444,24.519,37.781,12.46
2014-10-12 13:00,32.454,24.526,37.791,12.46
2014-10-12 14:00,32.440,24.519,37.759,12.44